Location: Boiro
(42.6475°N, 8.8834°W)
Time: 02:46:25
(UTC+01:00)

Vanguard 1 Rocket - Pass Details

Date: 14 December 2021
Orbit: 651 x 4224 km, 34.3° (Epoch: 21 January)

Event Time Altitude Azimuth Distance (km) Brightness Sun altitude
Rises 04:52:30 0° 267° (W) 4,218 - -44.1°
Reaches altitude 10° 04:54:52 10° 262° (W) 3,547 - -43.7°
Maximum altitude 05:04:02 53° 188° (S) 2,558 - -42.0°
Exits shadow 05:04:36 53° 180° (S) 2,616 9.4 -41.9°
Drops below altitude 10° 05:21:43 10° 119° (ESE) 6,501 12.3 -38.8°
Sets 05:27:56 0° 116° (ESE) 7,951 12.9 -37.6°
